This is the latest recevied weather packets stored in our database for station/object KB0RPJ. If no packets are shown the sender has not sent any weather packets the latest 10 day(s).
| Time | Temp. | Humidity | Pressure | Rain* | Wind** | Luminosity | Snow |
|---|---|---|---|---|---|---|---|
| 1777302005 | 16.67° C | 96% | 998.5 hPa | 0 mm | - | 198 W/m² | - |
| 1777301706 | 16.11° C | 95% | 998.6 hPa | 0 mm | - | 218 W/m² | - |
| 1777301411 | 16.11° C | 95% | 998.6 hPa | 0 mm | - | 196 W/m² | - |
| 1777301105 | 16.11° C | 95% | 998.6 hPa | 0 mm | - | 216 W/m² | - |
| 1777300805 | 16.11° C | 95% | 998.6 hPa | 0 mm | - | 193 W/m² | - |
| 1777300505 | 16.11° C | 96% | 998.6 hPa | 0 mm | - | 173 W/m² | - |
| 1777300207 | 16.11° C | 96% | 998.6 hPa | 0 mm | - | 181 W/m² | - |
| 1777299904 | 16.11° C | 95% | 998.8 hPa | 0 mm | - | 191 W/m² | - |
| 1777299605 | 16.11° C | 95% | 998.7 hPa | 0 mm | - | 174 W/m² | - |
| 1777299305 | 16.11° C | 96% | 998.5 hPa | 0 mm | - | 162 W/m² | - |
| 1777299005 | 16.11° C | 95% | 998.7 hPa | 0 mm | - | 160 W/m² | - |
| 1777298705 | 16.11° C | 95% | 999 hPa | 0 mm | - | 144 W/m² | - |
| 1777298405 | 15.56° C | 95% | 999 hPa | 0 mm | - | 129 W/m² | - |
| 1777298105 | 15.56° C | 95% | 998.6 hPa | 0 mm | - | 102 W/m² | - |
| 1777297805 | 15.56° C | 95% | 998.4 hPa | 0 mm | - | 79 W/m² | - |
| 1777297505 | 15.56° C | 95% | 998.7 hPa | 0 mm | - | 59 W/m² | - |
| 1777297205 | 15.56° C | 95% | 998.9 hPa | 0 mm | - | 47 W/m² | - |
| 1777296905 | 15.56° C | 95% | 999.2 hPa | 0 mm | - | 37 W/m² | - |
| 1777296606 | 15.56° C | 95% | 999.2 hPa | 0 mm | - | 30 W/m² | - |
| 1777296305 | 15.56° C | 95% | 998.9 hPa | 0 mm | - | 23 W/m² | - |
| 1777296008 | 15.56° C | 95% | 998.5 hPa | 0.25 mm | - | 17 W/m² | - |
| 1777295705 | 15.56° C | 95% | 998.1 hPa | 0.25 mm | - | 16 W/m² | - |
| 1777295411 | 15.56° C | 95% | 997.9 hPa | 0.25 mm | - | 13 W/m² | - |
| 1777295104 | 15.56° C | 95% | 997.7 hPa | 0.25 mm | - | 9 W/m² | - |
| 1777294805 | 15.56° C | 95% | 998 hPa | 0.51 mm | - | 6 W/m² | - |
* Rain latest hour (hover to see other rain measurements)
** Current wind speed in m/s (hover to see current wind gust speed)